TimeGMT,TemperatureF,Dew PointF,Humidity,Sea Level PressureIn,VisibilityMPH,Wind Direction,Wind SpeedMPH,Gust SpeedMPH,PrecipitationIn,Events,Conditions,WindDirDegrees,DateUTC
12:20 AM,24.8,21.2,86,29.98,6.2,Calm,Calm,-,N/A,,Mostly Cloudy,0,2013-01-24 00:20:00
12:50 AM,26.6,23.0,86,29.98,6.2,Calm,Calm,-,N/A,,Mostly Cloudy,0,2013-01-24 00:50:00
1:20 AM,26.6,23.0,86,29.98,6.2,Calm,Calm,-,N/A,,Scattered Clouds,0,2013-01-24 01:20:00
1:50 AM,26.6,23.0,86,29.98,6.2,Calm,Calm,-,N/A,,Scattered Clouds,0,2013-01-24 01:50:00
2:20 AM,26.6,21.2,80,29.98,6.2,Calm,Calm,-,N/A,,Partly Cloudy,0,2013-01-24 02:20:00
2:50 AM,30,26,79,29.97,8,North,2.3,,,,,350,2013-01-24 02:50:00
2:50 AM,24.8,21.2,86,29.98,6.2,Calm,Calm,-,N/A,,Unknown,0,2013-01-24 02:50:00
3:20 AM,23.0,19.4,86,29.98,6.2,Calm,Calm,-,N/A,,Unknown,0,2013-01-24 03:20:00
3:50 AM,23.0,19.4,86,29.98,6.2,Calm,Calm,-,N/A,,Unknown,0,2013-01-24 03:50:00
4:20 AM,21.2,17.6,86,29.98,6.2,Calm,Calm,-,N/A,,Unknown,0,2013-01-24 04:20:00
4:50 AM,21.2,17.6,86,29.98,6.2,Calm,Calm,-,N/A,,Unknown,0,2013-01-24 04:50:00
5:20 AM,21.2,17.6,86,29.98,6.2,Calm,Calm,-,N/A,,Unknown,0,2013-01-24 05:20:00
5:50 AM,27,25,87,29.98,25,WNW,1.2,,,,,290,2013-01-24 05:50:00
5:50 AM,21.2,17.6,86,29.98,6.2,Calm,Calm,-,N/A,,Unknown,0,2013-01-24 05:50:00
6:20 AM,21.2,17.6,86,29.98,6.2,Calm,Calm,-,N/A,,Partly Cloudy,0,2013-01-24 06:20:00
6:50 AM,21.2,17.6,86,29.98,6.2,Calm,Calm,-,N/A,,Partly Cloudy,0,2013-01-24 06:50:00
7:20 AM,21.2,17.6,86,29.98,6.2,Calm,Calm,-,N/A,,Partly Cloudy,0,2013-01-24 07:20:00
7:50 AM,21.2,17.6,86,29.98,6.2,Calm,Calm,-,N/A,,Partly Cloudy,0,2013-01-24 07:50:00
8:20 AM,26.6,23.0,86,30.01,6.2,Calm,Calm,-,N/A,,Partly Cloudy,0,2013-01-24 08:20:00
8:50 AM,28,25,82,29.98,28,ESE,1.2,,,,Partly Cloudy,110,2013-01-24 08:50:00
8:50 AM,23.0,19.4,86,29.98,6.2,Calm,Calm,-,N/A,,Partly Cloudy,0,2013-01-24 08:50:00
9:20 AM,23.0,21.2,93,29.98,6.2,Calm,Calm,-,N/A,,Partly Cloudy,0,2013-01-24 09:20:00
9:50 AM,26.6,23.0,86,29.98,6.2,Calm,Calm,-,N/A,,Partly Cloudy,0,2013-01-24 09:50:00
10:20 AM,28.4,24.8,86,29.98,6.2,Calm,Calm,-,N/A,,Partly Cloudy,0,2013-01-24 10:20:00
10:50 AM,35.6,32.0,87,29.98,6.2,South,15.0,-,N/A,,Partly Cloudy,180,2013-01-24 10:50:00
11:20 AM,39.2,32.0,75,29.98,6.2,South,15.0,-,N/A,,Scattered Clouds,180,2013-01-24 11:20:00
11:50 AM,40,30,58,29.97,28,South,16.1,,,,Scattered Clouds,180,2013-01-24 11:50:00
11:50 AM,39.2,32.0,75,29.98,6.2,South,17.3,-,N/A,,Scattered Clouds,180,2013-01-24 11:50:00
12:20 PM,39.2,32.0,75,29.95,6.2,South,15.0,-,N/A,,Scattered Clouds,180,2013-01-24 12:20:00
12:50 PM,39.2,30.2,70,29.95,6.2,South,15.0,-,N/A,,Scattered Clouds,190,2013-01-24 12:50:00
1:20 PM,39.2,30.2,70,29.95,6.2,South,17.3,-,N/A,,Scattered Clouds,190,2013-01-24 13:20:00
1:50 PM,39.2,30.2,70,29.95,6.2,South,17.3,-,N/A,,Scattered Clouds,190,2013-01-24 13:50:00
2:20 PM,41.0,30.2,65,29.95,6.2,South,16.1,-,N/A,,Scattered Clouds,190,2013-01-24 14:20:00
2:50 PM,40,29,52,29.94,31,South,18.4,,,,Partly Cloudy,190,2013-01-24 14:50:00
2:50 PM,39.2,30.2,70,29.92,6.2,South,17.3,-,N/A,,Scattered Clouds,190,2013-01-24 14:50:00
3:20 PM,39.2,28.4,65,29.92,6.2,South,17.3,-,N/A,,Scattered Clouds,180,2013-01-24 15:20:00
3:50 PM,39.2,30.2,70,29.92,6.2,South,17.3,-,N/A,,Scattered Clouds,170,2013-01-24 15:50:00
4:20 PM,39.2,30.2,70,29.89,6.2,South,19.6,-,N/A,,Scattered Clouds,170,2013-01-24 16:20:00
4:50 PM,39.2,30.2,70,29.89,6.2,South,20.7,-,N/A,,Scattered Clouds,180,2013-01-24 16:50:00
5:20 PM,39.2,28.4,65,29.89,6.2,South,21.9,-,N/A,,Scattered Clouds,180,2013-01-24 17:20:00
5:50 PM,40,29,53,29.88,25,South,21.9,,,,Scattered Clouds,170,2013-01-24 17:50:00
5:50 PM,42.8,30.2,61,29.89,6.2,South,23.0,-,N/A,,Mostly Cloudy,180,2013-01-24 17:50:00
6:20 PM,41.0,30.2,65,29.86,6.2,South,24.2,-,N/A,,Mostly Cloudy,170,2013-01-24 18:20:00
6:50 PM,39.2,30.2,70,29.86,6.2,SSE,23.0,-,N/A,,Mostly Cloudy,160,2013-01-24 18:50:00
7:20 PM,39.2,30.2,70,29.86,6.2,SSE,23.0,-,N/A,,Mostly Cloudy,160,2013-01-24 19:20:00
7:50 PM,39.2,32.0,75,29.86,6.2,SSE,23.0,-,N/A,,Mostly Cloudy,160,2013-01-24 19:50:00
8:20 PM,41.0,32.0,70,29.83,6.2,South,25.3,-,N/A,,Mostly Cloudy,170,2013-01-24 20:20:00
8:50 PM,41,33,63,29.82,12,SSE,24.2,,,,Mostly Cloudy,160,2013-01-24 20:50:00
8:50 PM,41.0,32.0,70,29.83,6.2,SSE,25.3,-,N/A,,Overcast,160,2013-01-24 20:50:00
9:20 PM,39.2,33.8,81,29.80,6.2,South,25.3,-,N/A,,Light Drizzle,170,2013-01-24 21:20:00
9:50 PM,39.2,33.8,81,29.80,6.2,South,24.2,-,N/A,,Light Drizzle,170,2013-01-24 21:50:00
10:20 PM,39.2,33.8,81,29.77,6.2,South,25.3,-,N/A,Rain,Light Rain,170,2013-01-24 22:20:00
10:50 PM,39.2,35.6,87,29.74,6.2,South,27.6,-,N/A,,Mostly Cloudy,170,2013-01-24 22:50:00
11:20 PM,39.2,35.6,87,29.74,6.2,South,27.6,-,N/A,,Light Drizzle,170,2013-01-24 23:20:00
11:50 PM,41,38,83,29.73,7,South,23.0,,,Rain,Light Rain Showers,170,2013-01-24 23:50:00
11:50 PM,41.0,35.6,81,29.71,6.2,South,25.3,-,N/A,,Light Drizzle,180,2013-01-24 23:50:00